GW6356 Weather Reports


time (UTC)temp
C
wind
direction
speed
KPH
gust
KPH
rain 1hr
cm
rain 24hr
cm
rain mn
cm
humidity
%
barometer
mb
20260507172508 26 149 3.2 6.4 0.00 0.00 0.00 19 1015.1
20260507171527 26 175 3.2 4.8 0.00 0.00 0.00 19 1015.1
20260507171008 26 161 3.2 4.8 0.00 0.00 0.00 20 1015.1
20260507170018 27 148 0.0 4.8 0.00 0.00 0.00 19 1015.3
20260507165506 26 152 0.0 4.8 0.00 0.00 0.00 21 1015.3
20260507165007 25 278 1.6 3.2 0.00 0.00 0.00 21 1015.3
20260507164522 25 155 1.6 3.2 0.00 0.00 0.00 21 1015.4
20260507164009 25 174 1.6 3.2 0.00 0.00 0.00 21 1015.4
20260507163510 24 195 1.6 4.8 0.00 0.00 0.00 22 1015.4
20260507163022 24 176 1.6 4.8 0.00 0.00 0.00 22 1015.4
20260507162011 25 190 0.0 3.2 0.00 0.00 0.00 23 1015.5
20260507161527 24 129 0.0 6.4 0.00 0.00 0.00 24 1015.5
20260507160509 23 229 3.2 6.4 0.00 0.00 0.00 24 1015.7
20260507155009 22 216 1.6 4.8 0.00 0.00 0.00 26 1015.8
20260507154527 22 186 0.0 6.4 0.00 0.00 0.00 26 1015.9
20260507154009 22 224 4.8 6.4 0.00 0.00 0.00 25 1015.9
20260507153505 22 165 0.0 4.8 0.00 0.00 0.00 26 1015.9
20260507153032 21 197 0.0 6.4 0.00 0.00 0.00 27 1015.9
20260507152507 21 214 3.2 6.4 0.00 0.00 0.00 28 1016.0
20260507152012 20 214 1.6 6.4 0.00 0.00 0.00 28 1015.9
20260507151526 20 228 1.6 6.4 0.00 0.00 0.00 28 1016.0
20260507151011 20 259 1.6 6.4 0.00 0.00 0.00 28 1016.0
20260507150027 20 226 1.6 6.4 0.00 0.00 0.00 30 1016.1
20260507145509 20 224 3.2 6.4 0.00 0.00 0.00 30 1016.1
20260507145010 19 226 1.6 4.8 0.00 0.00 0.00 32 1016.1
20260507144526 18 221 1.6 6.4 0.00 0.00 0.00 33 1016.1
20260507144010 18 216 1.6 6.4 0.00 0.00 0.00 34 1016.1
20260507143508 17 219 1.6 4.8 0.00 0.00 0.00 38 1016.1
20260507143027 17 217 3.2 4.8 0.00 0.00 0.00 39 1016.1
20260507142509 17 222 1.6 6.4 0.00 0.00 0.00 41 1016.1
20260507142009 17 229 1.6 6.4 0.00 0.00 0.00 41 1016.1
20260507141520 16 222 1.6 6.4 0.00 0.00 0.00 41 1016.1
20260507141008 16 224 1.6 4.8 0.00 0.00 0.00 42 1016.1
20260507140511 16 218 3.2 4.8 0.00 0.00 0.00 41 1016.0
20260507140025 16 228 1.6 4.8 0.00 0.00 0.00 39 1016.0
20260507135508 16 226 3.2 4.8 0.00 0.00 0.00 39 1016.0
20260507135008 16 215 1.6 3.2 0.00 0.00 0.00 41 1016.1
20260507134524 16 215 0.0 1.6 0.00 0.00 0.00 40 1016.1
20260507134010 16 216 0.0 1.6 0.00 0.00 0.00 41 1016.0
20260507133509 16 221 0.0 3.2 0.00 0.00 0.00 40 1016.0
20260507133028 15 221 0.0 3.2 0.00 0.00 0.00 41 1015.9
20260507132503 15 227 0.0 3.2 0.00 0.00 0.00 43 1015.9
20260507132003 15 221 1.6 3.2 0.00 0.00 0.00 43 1015.9
20260507131505 14 216 0.0 1.6 0.00 0.00 0.00 46 1015.9
20260507131003 13 217 0.0 3.2 0.00 0.00 0.00 47 1015.9
20260507124003 12 217 0.0 1.6 0.00 0.00 0.00 50 1015.7
20260507123503 12 217 0.0 1.6 0.00 0.00 0.00 50 1015.7
20260507123005 12 217 0.0 1.6 0.00 0.00 0.00 50 1015.6
20260507122502 12 217 0.0 1.6 0.00 0.00 0.00 50 1015.5
20260507122002 12 217 0.0 3.2 0.00 0.00 0.00 50 1015.5
20260507121504 12 217 1.6 3.2 0.00 0.00 0.00 51 1015.6
20260507121004 12 219 0.0 1.6 0.00 0.00 0.00 52 1015.6
20260507120509 12 220 0.0 1.6 0.00 0.00 0.00 52 1015.6
20260507120006 12 221 0.0 3.2 0.00 0.00 0.00 52 1015.5
20260507115502 12 222 1.6 3.2 0.00 0.00 0.00 51 1015.6
20260507114505 12 218 1.6 3.2 0.00 0.00 0.00 51 1015.8
20260507114005 12 218 1.6 3.2 0.00 0.00 0.00 51 1015.7
20260507113503 12 218 1.6 3.2 0.00 0.00 0.00 51 1015.7
20260507113005 12 213 0.0 4.8 0.00 0.00 0.00 51 1015.6
20260507112504 12 221 1.6 4.8 0.00 0.00 0.00 52 1015.6
20260507112005 12 231 3.2 4.8 0.00 0.00 0.00 52 1015.6
20260507111509 12 231 3.2 4.8 0.00 0.00 0.00 52 1015.6
20260507111003 12 224 3.2 4.8 0.00 0.00 0.00 52 1015.6
20260507110503 12 212 1.6 3.2 0.00 0.00 0.00 52 1015.5
20260507110007 13 202 1.6 1.6 0.00 0.00 0.00 51 1015.5
20260507105505 13 188 0.0 1.6 0.00 0.00 0.00 50 1015.5
20260507105003 13 177 0.0 1.6 0.00 0.00 0.00 50 1015.4
20260507104504 13 177 0.0 1.6 0.00 0.00 0.00 50 1015.4
20260507104006 13 177 0.0 1.6 0.00 0.00 0.00 50 1015.4
20260507103503 13 174 0.0 0.0 0.00 0.00 0.00 50 1015.4
20260507103020 13 174 0.0 0.0 0.00 0.00 0.00 49 1015.4
20260507102503 13 173 0.0 0.0 0.00 0.00 0.00 48 1015.4
20260507102003 13 174 0.0 1.6 0.00 0.00 0.00 47 1015.4
20260507101510 13 174 0.0 1.6 0.00 0.00 0.00 47 1015.5
20260507101005 13 178 0.0 0.0 0.00 0.00 0.00 48 1015.5
20260507100505 13 205 0.0 0.0 0.00 0.00 0.00 48 1015.5
20260507100008 13 205 0.0 0.0 0.00 0.00 0.00 48 1015.5
20260507095506 13 205 0.0 0.0 0.00 0.00 0.00 48 1015.5
20260507095004 13 205 0.0 0.0 0.00 0.00 0.00 47 1015.5
20260507094511 14 205 0.0 1.6 0.00 0.00 0.00 46 1015.6
20260507094003 14 205 0.0 1.6 0.00 0.00 0.00 46 1015.6
20260507093503 14 205 0.0 0.0 0.00 0.00 0.00 45 1015.6
20260507093010 15 205 0.0 3.2 0.00 0.00 0.00 44 1015.7
20260507092507 15 221 0.0 3.2 0.00 0.00 0.00 44 1015.6
20260507092003 15 226 1.6 3.2 0.00 0.00 0.00 44 1015.7
20260507091509 15 218 1.6 1.6 0.00 0.00 0.00 45 1015.8
20260507091004 15 218 0.0 3.2 0.00 0.00 0.00 45 1015.8
20260507090505 15 218 0.0 4.8 0.00 0.00 0.00 44 1015.8
20260507090012 15 219 1.6 4.8 0.00 0.00 0.00 45 1015.9
20260507085504 14 231 1.6 4.8 0.00 0.00 0.00 46 1015.9
20260507085004 14 194 1.6 3.2 0.00 0.00 0.00 49 1015.8
20260507084511 13 192 0.0 0.0 0.00 0.00 0.00 49 1015.9
20260507084004 14 192 0.0 0.0 0.00 0.00 0.00 49 1015.9
20260507083504 14 192 0.0 0.0 0.00 0.00 0.00 49 1015.8
20260507083010 13 192 0.0 0.0 0.00 0.00 0.00 49 1015.8
20260507082504 14 192 0.0 0.0 0.00 0.00 0.00 47 1015.8
20260507082003 14 192 0.0 0.0 0.00 0.00 0.00 47 1015.9
20260507081511 15 192 0.0 0.0 0.00 0.00 0.00 45 1015.9
20260507080504 15 192 0.0 0.0 0.00 0.00 0.00 43 1015.9
20260507075505 16 192 0.0 1.6 0.00 0.00 0.00 41 1015.9
20260507075006 16 193 0.0 1.6 0.00 0.00 0.00 41 1015.8
20260507074009 16 201 0.0 1.6 0.00 0.00 0.00 42 1015.8
20260507073507 16 201 1.6 1.6 0.00 0.00 0.00 42 1015.8
20260507073013 16 167 0.0 1.6 0.00 0.00 0.00 43 1015.9
20260507072505 16 167 0.0 3.2 0.00 0.00 0.00 43 1015.9
20260507072008 16 167 1.6 3.2 0.00 0.00 0.00 43 1015.9
20260507071536 16 188 0.0 1.6 0.00 0.00 0.00 42 1015.9
20260507071006 17 188 0.0 1.6 0.00 0.00 0.00 41 1015.8
20260507070504 17 187 1.6 1.6 0.00 0.00 0.00 38 1015.8
20260507070016 18 184 0.0 1.6 0.00 0.00 0.00 33 1015.8
20260507064005 18 143 0.0 1.6 0.00 0.00 0.00 28 1015.8
20260507063506 18 143 0.0 1.6 0.00 0.00 0.00 28 1015.8
20260507063016 19 144 0.0 1.6 0.00 0.00 0.00 28 1015.8
20260507062509 20 144 0.0 1.6 0.00 0.00 0.00 26 1015.7
20260507062006 20 143 0.0 3.2 0.00 0.00 0.00 26 1015.7
20260507061518 20 137 0.0 3.2 0.00 0.00 0.00 26 1015.7
20260507061007 20 136 0.0 3.2 0.00 0.00 0.00 26 1015.6
20260507060506 20 140 0.0 8.0 0.00 0.00 0.00 26 1015.6
20260507060013 20 146 1.6 8.0 0.00 0.00 0.00 25 1015.6
20260507055504 20 139 1.6 4.8 0.00 0.00 0.00 26 1015.5
20260507054513 20 158 1.6 8.0 0.00 0.00 0.00 25 1015.6
20260507053014 20 120 1.6 4.8 0.00 0.00 0.00 25 1015.5
20260507052509 20 146 0.0 1.6 0.00 0.00 0.00 25 1015.5
20260507052004 20 143 0.0 3.2 0.00 0.00 0.00 25 1015.6
20260507051528 21 143 0.0 3.2 0.00 0.00 0.00 25 1015.6
20260507051007 21 160 0.0 3.2 0.00 0.00 0.00 24 1015.5
20260507050506 21 133 0.0 6.4 0.00 0.00 0.00 24 1015.5
20260507050022 21 137 1.6 6.4 0.00 0.00 0.00 24 1015.4
20260507045509 21 151 0.0 6.4 0.00 0.00 0.00 23 1015.5
20260507045009 21 152 3.2 6.4 0.00 0.00 0.00 23 1015.5
20260507044521 21 157 0.0 6.4 0.00 0.00 0.00 23 1015.4
20260507044008 21 145 3.2 9.7 0.00 0.00 0.00 22 1015.4
20260507043504 21 134 4.8 9.7 0.00 0.00 0.00 22 1015.4
20260507042505 21 139 3.2 8.0 0.00 0.00 0.00 22 1015.3
20260507042004 21 127 3.2 8.0 0.00 0.00 0.00 22 1015.3
20260507041512 21 147 1.6 8.0 0.00 0.00 0.00 22 1015.2
20260507041003 21 140 3.2 9.7 0.00 0.00 0.00 22 1015.1
20260507040509 21 132 3.2 9.7 0.00 0.00 0.00 22 1015.2
20260507040017 21 114 3.2 8.0 0.00 0.00 0.00 22 1015.1
20260507035506 21 122 1.6 8.0 0.00 0.00 0.00 22 1015.1
20260507035007 22 108 1.6 8.0 0.00 0.00 0.00 23 1015.1
20260507034530 22 149 4.8 8.0 0.00 0.00 0.00 23 1015.0
20260507034006 22 135 1.6 6.4 0.00 0.00 0.00 22 1015.0
20260507033506 22 158 3.2 12.9 0.00 0.00 0.00 22 1014.9
20260507033032 22 131 1.6 12.9 0.00 0.00 0.00 22 1014.9
20260507032509 22 145 3.2 8.0 0.00 0.00 0.00 21 1014.8
20260507032003 22 143 1.6 9.7 0.00 0.00 0.00 21 1014.7
20260507031508 22 148 4.8 9.7 0.00 0.00 0.00 21 1014.7
20260507031004 22 143 3.2 9.7 0.00 0.00 0.00 21 1014.7
20260507030507 22 139 1.6 9.7 0.00 0.00 0.00 20 1014.6
20260507030024 23 143 4.8 9.7 0.00 0.00 0.00 20 1014.6
20260507025504 23 153 3.2 8.0 0.00 0.00 0.00 20 1014.5
20260507025005 23 136 3.2 8.0 0.00 0.00 0.00 20 1014.4
20260507024517 23 149 1.6 9.7 0.00 0.00 0.00 20 1014.4
20260507024008 23 146 1.6 9.7 0.00 0.00 0.00 19 1014.3
20260507023507 23 166 1.6 9.7 0.00 0.00 0.00 19 1014.4
20260507023026 23 160 3.2 12.9 0.00 0.00 0.00 19 1014.3
20260507022507 23 142 4.8 12.9 0.00 0.00 0.00 18 1014.3
20260507022007 23 167 4.8 12.9 0.00 0.00 0.00 19 1014.3
20260507021518 24 132 6.4 12.9 0.00 0.00 0.00 18 1014.3
20260507021010 24 116 6.4 12.9 0.00 0.00 0.00 18 1014.3
20260507020503 24 134 6.4 12.9 0.00 0.00 0.00 18 1014.2
20260507020017 24 122 3.2 12.9 0.00 0.00 0.00 19 1014.2
20260507015503 24 78 4.8 11.3 0.00 0.00 0.00 19 1014.2
20260507015012 24 132 4.8 12.9 0.00 0.00 0.00 19 1014.2
20260507014516 25 148 4.8 12.9 0.00 0.00 0.00 19 1014.3
20260507014006 25 140 4.8 11.3 0.00 0.00 0.00 18 1014.2
20260507013508 25 136 3.2 9.7 0.00 0.00 0.00 19 1014.3
20260507013021 25 139 3.2 9.7 0.00 0.00 0.00 19 1014.2
20260507012510 25 133 4.8 9.7 0.00 0.00 0.00 19 1014.2
20260507012009 25 153 4.8 9.7 0.00 0.00 0.00 19 1014.1
20260507011522 25 146 3.2 12.9 0.00 0.00 0.00 19 1014.1
20260507011007 25 127 1.6 14.5 0.00 0.00 0.00 19 1014.1
20260507010509 25 122 8.0 14.5 0.00 0.00 0.00 19 1014.0
20260507010026 25 134 6.4 14.5 0.00 0.00 0.00 19 1014.1
20260507005510 25 139 4.8 14.5 0.00 0.00 0.00 19 1014.1
20260507004514 26 128 4.8 14.5 0.00 0.00 0.00 19 1014.1
20260507004007 26 122 6.4 14.5 0.00 0.00 0.00 19 1014.1
20260507003508 26 121 6.4 12.9 0.00 0.00 0.00 18 1014.1
20260507003021 26 136 1.6 12.9 0.00 0.00 0.00 19 1014.1
20260507002504 26 143 3.2 16.1 0.00 0.00 0.00 19 1014.0
20260507002010 26 136 8.0 16.1 0.00 0.00 0.00 18 1014.0
20260507001520 26 134 4.8 12.9 0.00 0.00 0.00 19 1014.0
20260507001007 26 144 3.2 12.9 0.00 0.00 0.00 19 1014.0
20260507000509 26 114 6.4 12.9 0.00 0.00 0.00 19 1014.1
20260507000023 26 124 6.4 14.5 0.00 0.00 0.00 18 1014.1
20260506235509 26 154 3.2 14.5 0.00 0.00 0.00 19 1014.1
20260506235009 26 144 3.2 12.9 0.00 0.00 0.00 19 1014.1
20260506234523 26 153 6.4 12.9 0.00 0.00 0.00 18 1014.2
20260506233012 27 143 1.6 16.1 0.00 0.00 0.00 19 1014.1
20260506232504 27 130 3.2 16.1 0.00 0.00 0.00 18 1014.2
20260506232009 27 135 1.6 9.7 0.00 0.00 0.00 18 1014.2
20260506231520 27 138 1.6 12.9 0.00 0.00 0.00 18 1014.2
20260506231007 27 103 3.2 12.9 0.00 0.00 0.00 19 1014.3
20260506230507 27 208 1.6 14.5 0.00 0.00 0.00 19 1014.3
20260506230023 26 159 3.2 14.5 0.00 0.00 0.00 18 1014.3
20260506225508 27 127 4.8 11.3 0.00 0.00 0.00 19 1014.4
20260506225009 27 148 3.2 11.3 0.00 0.00 0.00 19 1014.4
20260506224526 27 163 3.2 8.0 0.00 0.00 0.00 18 1014.4
20260506224012 27 163 1.6 9.7 0.00 0.00 0.00 19 1014.4
20260506223513 26 194 3.2 9.7 0.00 0.00 0.00 19 1014.4
20260506223025 26 139 4.8 11.3 0.00 0.00 0.00 19 1014.4
20260506222509 26 160 4.8 11.3 0.00 0.00 0.00 20 1014.5
20260506222013 26 144 6.4 11.3 0.00 0.00 0.00 20 1014.5
20260506221524 26 243 3.2 11.3 0.00 0.00 0.00 20 1014.6
20260506221007 26 188 3.2 14.5 0.00 0.00 0.00 19 1014.6
20260506220507 27 129 3.2 14.5 0.00 0.00 0.00 20 1014.6
20260506220031 27 142 1.6 14.5 0.00 0.00 0.00 20 1014.6
20260506215508 26 173 0.0 14.5 0.00 0.00 0.00 22 1014.7
20260506215008 26 129 6.4 14.5 0.00 0.00 0.00 20 1014.8
20260506214527 26 109 4.8 16.1 0.00 0.00 0.00 21 1014.9
20260506214009 26 156 4.8 19.3 0.00 0.00 0.00 21 1015.0
20260506213511 26 110 9.7 19.3 0.00 0.00 0.00 22 1015.1
20260506213030 26 123 4.8 12.9 0.00 0.00 0.00 21 1015.1
20260506212509 26 170 3.2 12.9 0.00 0.00 0.00 21 1015.2
20260506212009 26 103 4.8 12.9 0.00 0.00 0.00 22 1015.2
20260506211523 26 242 3.2 9.7 0.00 0.00 0.00 22 1015.2
20260506211008 25 144 3.2 11.3 0.00 0.00 0.00 23 1015.3
20260506210508 25 209 6.4 11.3 0.00 0.00 0.00 22 1015.4
20260506210027 26 185 4.8 11.3 0.00 0.00 0.00 22 1015.4
20260506205510 25 179 1.6 11.3 0.00 0.00 0.00 23 1015.5
20260506205008 26 168 4.8 11.3 0.00 0.00 0.00 21 1015.5
20260506204521 27 127 4.8 11.3 0.00 0.00 0.00 22 1015.6
20260506204006 26 44 1.6 8.0 0.00 0.00 0.00 23 1015.6
20260506203506 26 121 3.2 9.7 0.00 0.00 0.00 24 1015.6
20260506203028 25 345 3.2 9.7 0.00 0.00 0.00 24 1015.8
20260506202509 26 172 4.8 9.7 0.00 0.00 0.00 23 1015.8
20260506201528 25 360 3.2 17.7 0.00 0.00 0.00 25 1016.0
20260506201008 25 116 8.0 17.7 0.00 0.00 0.00 24 1016.0
20260506200508 25 119 1.6 8.0 0.00 0.00 0.00 27 1016.1
20260506200024 25 153 3.2 12.9 0.00 0.00 0.00 26 1016.1
20260506195509 25 115 4.8 12.9 0.00 0.00 0.00 26 1016.2
20260506195013 24 138 1.6 11.3 0.00 0.00 0.00 26 1016.2
20260506194527 24 124 4.8 11.3 0.00 0.00 0.00 26 1016.3
20260506194010 23 197 0.0 8.0 0.00 0.00 0.00 27 1016.3
20260506193509 25 220 4.8 6.4 0.00 0.00 0.00 25 1016.4
20260506193022 25 143 1.6 11.3 0.00 0.00 0.00 28 1016.5
20260506192011 25 96 3.2 14.5 0.00 0.00 0.00 28 1016.5
20260506191504 24 188 3.2 8.0 0.00 0.00 0.00 26 1016.6
20260506191004 24 153 1.6 8.0 0.00 0.00 0.00 28 1016.7
20260506190504 23 146 1.6 8.0 0.00 0.00 0.00 29 1016.6
20260506190007 23 125 3.2 8.0 0.00 0.00 0.00 29 1016.7
20260506184516 24 141 1.6 9.7 0.00 0.00 0.00 29 1016.8
20260506183021 23 338 1.6 9.7 0.00 0.00 0.00 30 1017.0
20260506182011 23 176 1.6 11.3 0.00 0.00 0.00 31 1017.1
20260506181524 23 127 4.8 11.3 0.00 0.00 0.00 29 1017.1
20260506180009 22 160 1.6 8.0 0.00 0.00 0.00 29 1017.2
20260506175506 23 336 3.2 8.0 0.00 0.00 0.00 29 1017.3
20260506175006 23 158 1.6 8.0 0.00 0.00 0.00 30 1017.3
20260506174510 23 148 1.6 8.0 0.00 0.00 0.00 31 1017.4